Location: Unspecified
(49.2170°N, 0.0000°E)
Time: 11:14:31
(UTC+00:00)

SR - Visible Passes

Search period start: 05 August 2020 00:00
Search period end: 15 August 2020 00:00
Orbit: 584 x 872 km, 66.7° (Epoch: 05 August)

Date Brightness Start Highest point End Pass type
(mag) Time Alt. Az. Time Alt. Az. Time Alt. Az.
05 Aug ? 01:23:29 10° WNW 01:26:07 15° NNW 01:28:42 10° N visible
05 Aug ? 22:53:35 66° SE 22:53:36 66° ESE 22:57:55 10° NE visible
06 Aug ? 00:32:56 12° W 00:35:59 23° NW 00:39:28 10° NNE visible
06 Aug ? 22:04:33 32° ESE 22:04:33 32° ESE 22:07:58 10° NE visible
06 Aug ? 23:43:54 24° W 23:46:00 37° NW 23:50:03 10° NNE visible
07 Aug ? 01:27:54 10° NW 01:29:14 11° NNW 01:30:35 10° N visible
07 Aug ? 21:15:24 16° E 21:15:24 16° E 21:17:29 10° ENE visible
07 Aug ? 22:54:44 41° WSW 22:56:11 69° NW 23:00:30 10° NNE visible
08 Aug ? 00:36:15 10° WNW 00:38:58 16° NNW 00:41:38 10° N visible
08 Aug ? 04:05:42 10° N 04:07:07 11° NNE 04:08:32 10° NE visible
08 Aug ? 22:05:21 45° S 22:06:31 62° ESE 22:10:47 10° NE visible
08 Aug ? 23:45:14 10° W 23:48:50 24° NW 23:52:22 10° NNE visible
09 Aug ? 21:15:37 26° SSE 21:16:57 31° ESE 21:20:48 10° NE visible
09 Aug ? 22:54:54 11° WSW 22:58:52 39° NW 23:02:56 10° NNE visible
10 Aug ? 00:40:35 10° NW 00:42:05 11° NNW 00:43:33 10° N visible
10 Aug ? 04:07:36 10° N 04:10:14 16° NNE 04:12:53 10° ENE visible
10 Aug ? 20:25:08 11° SE 20:27:33 16° ESE 20:30:13 10° ENE visible
10 Aug ? 22:04:33 10° SW 22:09:04 73° NW 22:13:23 10° NNE visible
10 Aug ? 23:49:01 10° WNW 23:51:48 16° NNW 23:54:34 10° N visible
11 Aug ? 03:18:42 10° N 03:19:57 11° NNE 03:21:13 10° NE visible
11 Aug ? 21:14:57 10° SSW 21:19:24 58° ESE 21:23:39 10° NE visible
11 Aug ? 22:58:02 10° W 23:01:42 25° NW 23:05:16 10° NNE visible
12 Aug ? 04:09:47 10° NNW 04:13:13 23° NE 04:16:44 10° E visible
12 Aug ? 20:25:57 10° S 20:29:52 29° ESE 20:33:38 10° NE visible
12 Aug ? 22:07:30 10° WSW 22:11:45 41° NW 22:15:51 10° NNE visible
12 Aug ? 23:53:17 10° NW 23:54:55 12° NNW 23:56:32 10° N visible
13 Aug ? 03:20:32 10° N 03:23:04 15° NNE 03:25:39 10° ENE visible
13 Aug ? 21:17:27 10° SW 21:21:57 78° NW 21:26:17 10° NE visible
13 Aug ? 23:01:47 10° WNW 23:04:39 17° NNW 23:07:30 10° N visible
14 Aug ? 02:31:42 10° N 02:32:47 11° NNE 02:33:52 10° NE visible
14 Aug ? 04:12:06 10° NNW 04:16:04 35° NE 04:20:12 10° ESE visible
14 Aug ? 20:27:54 10° SSW 20:32:18 54° ESE 20:36:31 10° NE visible
14 Aug ? 22:10:51 10° W 22:14:34 26° NW 22:18:11 10° NNE visible
